Sign in Sign up

Gangneung

Pos Pair Lane Name Born Nation Time
1 12 I Jorien ter Mors 1989 Netherlands 1:13.56
2 15 O Nao Kodaira 1985 Japan 1:13.82
3 14 I Miho Takagi 1994 Japan 1:13.98
4 12 O Brittany Bowe 1988 USA 1:14.36
5 15 I Vanessa Herzog 1995 Austria 1:14.47
6 16 I Marrit Leenstra 1989 Netherlands 1:14.85
7 14 O Karolina Erbanová 1992 Czech Republic 1:14.95
8 16 O Heather Bergsma 1989 USA 1:15.15
9 4 I Ireen Wüst 1986 Netherlands 1:15.32
10 7 O Ida Njĺtun 1991 Norway 1:15.43
11 11 O Hong Zhang 1988 China 1:15.67
12 11 I Natalia Czerwonka 1988 Poland 1:15.77
13 10 I Arisa Go 1987 Japan 1:15.84
14 13 I Hege Břkko 1991 Norway 1:15.98
15 9 I Gabriele Hirschbichler 1983 Germany 1:16.03
16 9 O Seung-Hi Park 1992 South Korea 1:16.11
17 5 I Jing Yu 1985 China 1:16.361
18 7 I Hyun-Yung Kim 1994 South Korea 1:16.366
19 2 O Nikola Zdráhalová 1996 Czech Republic 1:16.43
20 13 O Yu-Ting Huang 1988 Taiwan 1:16.44
21 6 I Ruining Tian 1997 China 1:16.69
22 8 O Angelina Golikova 1991 Russia 1:16.85
23 8 I Kaylin Irvine 1990 Canada 1:16.90
24 6 O Yekaterina Aydova 1991 Kazakhstan 1:17.09
25 10 O Heather McLean 1993 Canada 1:17.25
26 5 O Judith Dannhauer 1982 Germany 1:17.41
27 3 O Francesca Bettrone 1991 Italy 1:17.83
28 3 I Jerica Tandiman 1996 USA 1:18.02
29 2 I Karolina Bosiek 2000 Poland 1:18.53
30 4 O Yvonne Daldossi 1992 Italy 1:19.33
31 1 I Michelle Uhrig 1996 Germany 1:20.81

Info

What Olympic Winter Games 2018
Discipline 1.000
Host Gangneung
Nation South Korea
Date Wednesday 14.Feb 2018
Calendar 2017/2018
Air Temp 16.5 C
Ice Temp -9.5 C
Humidity 31.0 %